PE1RXF-13 Weather Reports


time (UTC)temp
C
wind
direction
speed
KPH
gust
KPH
rain 1hr
cm
rain 24hr
cm
rain mn
cm
humidity
%
barometer
mb
20260506201411 7 315 1.6 9.7 0.00 0.00 0.00 99 1011.3
20260506194411 7 315 1.6 6.4 0.00 0.00 0.00 99 1011.1
20260506191412 8 0 1.6 6.4 0.00 0.00 0.00 94 1010.7
20260506181411 10 315 3.2 16.1 0.00 0.00 0.00 82 1010.0
20260506171411 12 0 4.8 17.7 0.00 0.00 0.00 76 1009.5
20260506161411 13 0 3.2 12.9 0.00 0.00 0.00 62 1009.2
20260506154411 12 180 9.7 33.8 0.00 0.00 0.00 63 1009.2
20260506144412 13 270 4.8 17.7 0.00 0.00 0.00 53 1009.0
20260506141412 13 90 1.6 6.4 0.00 0.00 0.00 56 1009.0
20260506131411 13 225 9.7 30.6 0.00 0.00 0.00 50 1009.0
20260506124411 13 0 4.8 32.2 0.00 0.00 0.00 48 1008.9
20260506121411 13 45 4.8 22.5 0.00 0.00 0.00 54 1008.8
20260506114411 12 135 4.8 20.9 0.00 0.00 0.00 50 1008.8
20260506111412 12 225 4.8 17.7 0.00 0.00 0.00 50 1008.7
20260506104412 12 315 6.4 20.9 0.00 0.00 0.00 51 1008.6
20260506094412 11 180 3.2 16.1 0.00 0.00 0.00 61 1008.5
20260506091412 10 45 1.6 6.4 0.00 0.00 0.00 72 1008.4
20260506084412 10 247 1.6 6.4 0.00 0.00 0.00 79 1008.2
20260506081413 10 225 3.2 16.1 0.00 0.00 0.00 84 1008.1
20260506071412 10 45 1.6 6.4 0.00 0.00 0.00 99 1007.9
20260506051412 8 45 1.6 6.4 0.00 0.00 0.00 99 1007.7
20260506044412 8 225 0.0 4.8 0.00 0.00 0.00 97 1007.6
20260506041412 8 225 3.2 11.3 0.00 0.00 0.00 97 1007.6
20260506034412 8 45 0.0 4.8 0.00 0.00 0.00 99 1007.7
20260506031412 8 315 1.6 3.2 0.00 0.00 0.00 99 1007.8
20260506024412 8 45 1.6 4.8 0.00 0.00 0.00 99 1008.0
20260506021412 8 315 1.6 4.8 0.00 0.00 0.00 99 1008.1
20260506014412 8 0 1.6 6.4 0.00 0.00 0.00 99 1008.3
20260506011412 8 0 1.6 3.2 0.00 0.00 0.00 99 1008.4
20260506004412 9 315 1.6 6.4 0.00 0.00 0.00 99 1008.6
20260506001413 9 0 1.6 9.7 0.00 0.00 0.00 99 1008.8
20260505234413 9 45 1.6 6.4 0.00 0.00 0.00 99 1009.2
20260505231412 9 315 1.6 6.4 0.00 0.00 0.00 99 1009.1
20260505224413 9 90 1.6 6.4 0.00 0.00 0.00 99 1009.3
20260505221412 8 315 1.6 6.4 0.00 0.00 0.00 99 1009.5
20260505214412 9 45 1.6 6.4 0.00 0.00 0.00 99 1009.8
20260505211412 9 315 1.6 6.4 0.00 0.00 0.00 99 1009.8
20260505204413 9 270 0.0 4.8 0.00 0.00 0.00 99 1010.0